START_TIME,STEP,MOV.,A46,t_acc.,A13,t_acc.,M47,t_acc.,A17,t_acc.,A28,t_acc.,M38,t_acc.
1979-03-04 09:00:39.000 ,3,0,,0,0.,4.8,0.,4.8,,0,0.,4.8,960.,4.8
1979-03-04 09:00:43.800 ,3,0,,0,3.,4.8,0.,4.8,,0,0.,4.8,912.,4.8
1979-03-04 09:00:48.600 ,3,0,,0,608.,4.8,192.,4.8,,0,0.,4.8,688.,4.8
1979-03-04 09:00:53.400 ,3,0,,0,3520.,4.8,1056.,4.8,,0,0.,4.8,640.,4.8
1979-03-04 09:00:58.200 ,3,0,,0,3584.,4.8,1088.,4.8,,0,0.,4.8,640.,4.8
1979-03-04 09:01:03.000 ,2,0,,0,3584.,4.8,1120.,4.8,,0,0.,4.8,688.,4.8
1979-03-04 09:01:07.800 ,2,0,,0,3328.,4.8,1024.,4.8,,0,0.,4.8,560.,4.8
1979-03-04 09:01:12.600 ,2,0,,0,2496.,4.8,784.,4.8,,0,0.,4.8,504.,4.8
1979-03-04 09:01:17.400 ,2,0,,0,0.,4.8,0.,4.8,,0,0.,4.8,512.,4.8
1979-03-04 09:01:22.200 ,2,0,,0,1.,4.8,0.,4.8,,0,0.,4.8,512.,4.8
1979-03-04 09:01:27.000 ,1,0,,0,1.,4.8,0.,4.8,,0,0.,4.8,528.,4.8
1979-03-04 09:01:31.800 ,1,0,,0,1.,4.8,0.,4.8,,0,0.,4.8,512.,4.8
1979-03-04 09:01:36.600 ,1,0,,0,472.,4.8,126.,4.8,,0,0.,4.8,608.,4.8
1979-03-04 09:01:41.400 ,1,0,,0,3072.,4.8,928.,4.8,,0,0.,4.8,544.,4.8
1979-03-04 09:01:46.200 ,1,0,,0,3136.,4.8,896.,4.8,,0,0.,4.8,608.,4.8
1979-03-04 09:01:51.000 ,0,0,,0,3264.,4.8,896.,4.8,,0,0.,4.8,608.,4.8
1979-03-04 09:01:55.800 ,0,0,,0,3584.,4.8,1088.,4.8,,0,0.,4.8,720.,4.8
1979-03-04 09:02:00.600 ,0,0,,0,3776.,4.8,1248.,4.8,,0,0.,4.8,928.,4.8
1979-03-04 09:02:05.400 ,0,0,,0,1.,4.8,0.,4.8,,0,0.,4.8,896.,4.8
1979-03-04 09:02:10.200 ,0,0,,0,1.,4.8,0.,4.8,,0,0.,4.8,944.,4.8
1979-03-04 09:02:15.000 ,0,0,,0,0.,4.8,0.,4.8,,0,0.,4.8,928.,4.8
1979-03-04 09:02:19.800 ,0,0,,0,0.,4.8,0.,4.8,,0,0.,4.8,992.,4.8
1979-03-04 09:02:24.600 ,0,0,,0,736.,4.8,216.,4.8,,0,0.,4.8,944.,4.8
1979-03-04 09:02:29.400 ,0,0,,0,4608.,4.8,1504.,4.8,,0,0.,4.8,960.,4.8
1979-03-04 09:02:34.200 ,0,0,,0,4608.,4.8,1536.,4.8,,0,0.,4.8,928.,4.8
1979-03-04 09:02:39.000 ,1,0,,0,4608.,4.8,1440.,4.8,,0,0.,4.8,960.,4.8
1979-03-04 09:02:43.800 ,1,0,,0,4032.,4.8,1216.,4.8,,0,0.,4.8,832.,4.8
1979-03-04 09:02:48.600 ,1,0,,0,2688.,4.8,768.,4.8,,0,0.,4.8,576.,4.8
1979-03-04 09:02:53.400 ,1,0,,0,1.,4.8,0.,4.8,,0,0.,4.8,576.,4.8
1979-03-04 09:02:58.200 ,1,0,,0,0.,4.8,0.,4.8,,0,0.,4.8,576.,4.8
1979-03-04 09:03:03.000 ,2,0,,0,1.,4.8,0.,4.8,,0,0.,4.8,608.,4.8
1979-03-04 09:03:07.800 ,2,0,,0,0.,4.8,0.,4.8,,0,0.,4.8,576.,4.8
1979-03-04 09:03:12.600 ,2,0,,0,488.,4.8,140.,4.8,,0,0.,4.8,576.,4.8
1979-03-04 09:03:17.400 ,2,0,,0,3136.,4.8,864.,4.8,,0,0.,4.8,544.,4.8
1979-03-04 09:03:22.200 ,2,0,,0,3072.,4.8,912.,4.8,,0,0.,4.8,560.,4.8
1979-03-04 09:03:27.000 ,3,0,,0,2944.,4.8,896.,4.8,,0,0.,4.8,528.,4.8
1979-03-04 09:03:31.800 ,3,0,,0,3200.,4.8,880.,4.8,,0,0.,4.8,576.,4.8
1979-03-04 09:03:36.600 ,3,0,,0,3072.,4.8,832.,4.8,,0,0.,4.8,752.,4.8
1979-03-04 09:03:41.400 ,3,0,,0,0.,4.8,0.,4.8,,0,0.,4.8,672.,4.8
1979-03-04 09:03:46.200 ,3,0,,0,0.,4.8,0.,4.8,,0,0.,4.8,672.,4.8
1979-03-04 09:03:51.000 ,4,0,,0,1.,4.8,0.,4.8,,0,0.,4.8,688.,4.8
1979-03-04 09:03:55.800 ,4,0,,0,1.,4.8,0.,4.8,,0,0.,4.8,848.,4.8
1979-03-04 09:04:00.600 ,4,0,,0,960.,4.8,312.,4.8,,0,0.,4.8,1152.,4.8
1979-03-04 09:04:05.400 ,4,0,,0,5888.,4.8,1824.,4.8,,0,0.,4.8,1184.,4.8
1979-03-04 09:04:10.200 ,4,0,,0,5888.,4.8,1888.,4.8,,0,0.,4.8,1248.,4.8
1979-03-04 09:04:15.000 ,5,0,,0,6016.,4.8,1920.,4.8,,0,0.,4.8,1280.,4.8
1979-03-04 09:04:19.800 ,5,0,,0,6784.,4.8,2240.,4.8,,0,0.,4.8,1376.,4.8
1979-03-04 09:04:24.600 ,5,0,,0,7040.,4.8,2432.,4.8,,0,0.,4.8,1760.,4.8
1979-03-04 09:04:29.400 ,5,0,,0,0.,4.8,0.,4.8,,0,0.,4.8,1792.,4.8
1979-03-04 09:04:34.200 ,5,0,,0,0.,4.8,0.,4.8,,0,0.,4.8,1728.,4.8
1979-03-04 09:04:39.000 ,6,0,,0,3.,4.8,0.,4.8,,0,0.,4.8,1728.,4.8
1979-03-04 09:04:43.800 ,6,0,,0,0.,4.8,0.,4.8,,0,0.,4.8,1824.,4.8
1979-03-04 09:04:48.600 ,6,0,,0,1504.,4.8,544.,4.8,,0,0.,4.8,1824.,4.8
1979-03-04 09:04:53.400 ,6,0,,0,8960.,4.8,3200.,4.8,,0,0.,4.8,1888.,4.8
1979-03-04 09:04:58.200 ,6,0,,0,8960.,4.8,3136.,4.8,,0,0.,4.8,1824.,4.8
1979-03-04 09:05:03.000 ,7,0,,0,8704.,4.8,3200.,4.8,,0,0.,4.8,1824.,4.8
1979-03-04 09:05:07.800 ,7,0,,0,5888.,4.8,2048.,4.8,,0,0.,4.8,1216.,4.8
1979-03-04 09:05:12.600 ,7,0,,0,13.,4.8,0.,4.8,,0,0.,4.8,0.,4.8
1979-03-04 09:05:17.400 ,7,0,,0,2.,4.8,0.,4.8,,0,0.,4.8,0.,4.8
1979-03-04 09:05:22.200 ,7,0,,0,1.,4.8,0.,4.8,,0,0.,4.8,0.,4.8
1979-03-04 09:05:27.000 ,7,0,,0,1.,4.8,0.,4.8,,0,0.,4.8,0.,4.8
1979-03-04 09:05:31.800 ,7,0,,0,0.,4.8,0.,4.8,,0,0.,4.8,0.,4.8
1979-03-04 09:05:36.600 ,7,0,,0,4.,4.8,0.,4.8,,0,0.,4.8,0.,4.8
1979-03-04 09:05:41.400 ,7,0,,0,11.,4.8,0.,4.8,,0,0.,4.8,0.,4.8
1979-03-04 09:05:46.200 ,7,0,,0,9.,4.8,0.,4.8,,0,0.,4.8,0.,4.8
1979-03-04 09:05:51.000 ,6,0,,0,11.,4.8,0.,4.8,,0,0.,4.8,0.,4.8
1979-03-04 09:05:55.800 ,6,0,,0,3008.,4.8,1008.,4.8,,0,0.,4.8,592.,4.8
1979-03-04 09:06:00.600 ,6,0,,0,7552.,4.8,2688.,4.8,,0,0.,4.8,1856.,4.8
1979-03-04 09:06:05.400 ,6,0,,0,1.,4.8,0.,4.8,,0,0.,4.8,1824.,4.8
1979-03-04 09:06:10.200 ,6,0,,0,0.,4.8,0.,4.8,,0,0.,4.8,1920.,4.8
1979-03-04 09:06:15.000 ,5,0,,0,0.,4.8,0.,4.8,,0,0.,4.8,1856.,4.8
1979-03-04 09:06:19.800 ,5,0,,0,0.,4.8,0.,4.8,,0,0.,4.8,1792.,4.8
1979-03-04 09:06:24.600 ,5,0,,0,1376.,4.8,496.,4.8,,0,0.,4.8,1728.,4.8
1979-03-04 09:06:29.400 ,5,0,,0,8192.,4.8,2880.,4.8,,0,0.,4.8,1600.,4.8
1979-03-04 09:06:34.200 ,5,0,,0,8192.,4.8,2880.,4.8,,0,0.,4.8,1664.,4.8
1979-03-04 09:06:39.000 ,4,0,,0,8192.,4.8,2880.,4.8,,0,0.,4.8,1664.,4.8
1979-03-04 09:06:43.800 ,4,0,,0,7424.,4.8,2624.,4.8,,0,0.,4.8,1536.,4.8
1979-03-04 09:06:48.600 ,4,0,,0,4608.,4.8,1472.,4.8,,0,0.,4.8,1152.,4.8
1979-03-04 09:06:53.400 ,4,0,,0,1.,4.8,0.,4.8,,0,0.,4.8,1152.,4.8
1979-03-04 09:06:58.200 ,4,0,,0,0.,4.8,0.,4.8,,0,0.,4.8,1184.,4.8
1979-03-04 09:07:03.000 ,3,0,,0,1.,4.8,0.,4.8,,0,0.,4.8,1216.,4.8
1979-03-04 09:07:07.800 ,3,0,,0,2.,4.8,0.,4.8,,0,0.,4.8,1088.,4.8
1979-03-04 09:07:12.600 ,3,0,,0,560.,4.8,144.,4.8,,0,0.,4.8,688.,4.8
1979-03-04 09:07:17.400 ,3,0,,0,3328.,4.8,1008.,4.8,,0,0.,4.8,720.,4.8
1979-03-04 09:07:22.200 ,3,0,,0,3456.,4.8,1088.,4.8,,0,0.,4.8,640.,4.8
1979-03-04 09:07:27.000 ,2,0,,0,3456.,4.8,1024.,4.8,,0,0.,4.8,752.,4.8
1979-03-04 09:07:31.800 ,2,0,,0,3520.,4.8,1024.,4.8,,0,0.,4.8,656.,4.8
1979-03-04 09:07:36.600 ,2,0,,0,3008.,4.8,912.,4.8,,0,0.,4.8,688.,4.8
1979-03-04 09:07:41.400 ,2,0,,0,0.,4.8,0.,4.8,,0,0.,4.8,640.,4.8
1979-03-04 09:07:46.200 ,2,0,,0,1.,4.8,0.,4.8,,0,0.,4.8,704.,4.8
1979-03-04 09:07:51.000 ,1,0,,0,1.,4.8,0.,4.8,,0,0.,4.8,672.,4.8
1979-03-04 09:07:55.800 ,1,0,,0,0.,4.8,0.,4.8,,0,0.,4.8,736.,4.8
1979-03-04 09:08:00.600 ,1,0,,0,624.,4.8,180.,4.8,,0,0.,4.8,768.,4.8
1979-03-04 09:08:05.400 ,1,0,,0,3648.,4.8,1152.,4.8,,0,0.,4.8,688.,4.8
1979-03-04 09:08:10.200 ,1,0,,0,3840.,4.8,1184.,4.8,,0,0.,4.8,672.,4.8
1979-03-04 09:08:15.000 ,0,0,,0,3776.,4.8,1152.,4.8,,0,0.,4.8,736.,4.8
1979-03-04 09:08:19.800 ,0,0,,0,4096.,4.8,1312.,4.8,,0,0.,4.8,832.,4.8
1979-03-04 09:08:24.600 ,0,0,,0,4032.,4.8,1312.,4.8,,0,0.,4.8,1008.,4.8
1979-03-04 09:08:29.400 ,0,0,,0,0.,4.8,0.,4.8,,0,0.,4.8,1024.,4.8
1979-03-04 09:08:34.200 ,0,0,,0,0.,4.8,0.,4.8,,0,0.,4.8,976.,4.8
1979-03-04 09:08:39.000 ,0,0,,0,0.,4.8,0.,4.8,,0,0.,4.8,976.,4.8
1979-03-04 09:08:43.800 ,0,0,,0,0.,4.8,0.,4.8,,0,0.,4.8,928.,4.8
1979-03-04 09:08:48.600 ,0,0,,0,784.,4.8,264.,4.8,,0,0.,4.8,976.,4.8
1979-03-04 09:08:53.400 ,0,0,,0,4736.,4.8,1632.,4.8,,0,0.,4.8,928.,4.8
1979-03-04 09:08:58.200 ,0,0,,0,4864.,4.8,1664.,4.8,,0,0.,4.8,976.,4.8
1979-03-04 09:09:03.000 ,1,0,,0,4608.,4.8,1536.,4.8,,0,0.,4.8,928.,4.8
1979-03-04 09:09:07.800 ,1,0,,0,4352.,4.8,1376.,4.8,,0,0.,4.8,896.,4.8
1979-03-04 09:09:12.600 ,1,0,,0,3136.,4.8,960.,4.8,,0,0.,4.8,704.,4.8
1979-03-04 09:09:17.400 ,1,0,,0,1.,4.8,0.,4.8,,0,0.,4.8,720.,4.8
1979-03-04 09:09:22.200 ,1,0,,0,0.,4.8,0.,4.8,,0,0.,4.8,704.,4.8
1979-03-04 09:09:27.000 ,2,0,,0,0.,4.8,0.,4.8,,0,0.,4.8,672.,4.8
1979-03-04 09:09:31.800 ,2,0,,0,0.,4.8,0.,4.8,,0,0.,4.8,688.,4.8
1979-03-04 09:09:36.600 ,2,0,,0,640.,4.8,184.,4.8,,0,0.,4.8,736.,4.8
1979-03-04 09:09:41.400 ,2,0,,0,3648.,4.8,1152.,4.8,,0,0.,4.8,768.,4.8
1979-03-04 09:09:46.200 ,2,0,,0,3776.,4.8,1184.,4.8,,0,0.,4.8,768.,4.8
1979-03-04 09:09:51.000 ,3,0,,0,3648.,4.8,1152.,4.8,,0,0.,4.8,736.,4.8
1979-03-04 09:09:55.800 ,3,0,,0,3968.,4.8,1216.,4.8,,0,0.,4.8,768.,4.8
1979-03-04 09:10:00.600 ,3,0,,0,3648.,4.8,1120.,4.8,,0,0.,4.8,864.,4.8
1979-03-04 09:10:05.400 ,3,0,,0,1.,4.8,0.,4.8,,0,0.,4.8,944.,4.8
1979-03-04 09:10:10.200 ,3,0,,0,1.,4.8,0.,4.8,,0,0.,4.8,864.,4.8
1979-03-04 09:10:15.000 ,4,0,,0,0.,4.8,0.,4.8,,0,0.,4.8,896.,4.8
1979-03-04 09:10:19.800 ,4,0,,0,0.,4.8,0.,4.8,,0,0.,4.8,1024.,4.8
1979-03-04 09:10:24.600 ,4,0,,0,1024.,4.8,352.,4.8,,0,0.,4.8,1216.,4.8
1979-03-04 09:10:29.400 ,4,0,,0,6400.,4.8,2112.,4.8,,0,0.,4.8,1248.,4.8
1979-03-04 09:10:34.200 ,4,0,,0,6400.,4.8,2048.,4.8,,0,0.,4.8,1280.,4.8
1979-03-04 09:10:39.000 ,5,0,,0,6400.,4.8,2048.,4.8,,0,0.,4.8,1248.,4.8
1979-03-04 09:10:43.800 ,5,0,,0,7040.,4.8,2432.,4.8,,0,0.,4.8,1472.,4.8
1979-03-04 09:10:48.600 ,5,0,,0,7296.,4.8,2496.,4.8,,0,0.,4.8,1728.,4.8
1979-03-04 09:10:53.400 ,5,0,,0,1.,4.8,0.,4.8,,0,0.,4.8,1792.,4.8
1979-03-04 09:10:58.200 ,5,0,,0,0.,4.8,0.,4.8,,0,0.,4.8,1792.,4.8
1979-03-04 09:11:03.000 ,6,0,,0,0.,4.8,0.,4.8,,0,0.,4.8,1824.,4.8
1979-03-04 09:11:07.800 ,6,0,,0,0.,4.8,0.,4.8,,0,0.,4.8,1792.,4.8
1979-03-04 09:11:12.600 ,6,0,,0,1472.,4.8,512.,4.8,,0,0.,4.8,1856.,4.8
1979-03-04 09:11:17.400 ,6,0,,0,8704.,4.8,3072.,4.8,,0,0.,4.8,1856.,4.8
1979-03-04 09:11:22.200 ,6,0,,0,8704.,4.8,3136.,4.8,,0,0.,4.8,1856.,4.8
1979-03-04 09:11:27.000 ,7,0,,0,8704.,4.8,3136.,4.8,,0,0.,4.8,1792.,4.8
1979-03-04 09:11:31.800 ,7,0,,0,6016.,4.8,2176.,4.8,,0,0.,4.8,1184.,4.8
1979-03-04 09:11:36.600 ,7,0,,0,9.,4.8,0.,4.8,,0,0.,4.8,0.,4.8
1979-03-04 09:11:41.400 ,7,0,,0,1.,4.8,0.,4.8,,0,0.,4.8,0.,4.8
1979-03-04 09:11:46.200 ,7,0,,0,0.,4.8,0.,4.8,,0,0.,4.8,0.,4.8
1979-03-04 09:11:51.000 ,7,0,,0,1.,4.8,0.,4.8,,0,0.,4.8,0.,4.8
1979-03-04 09:11:55.800 ,7,0,,0,0.,4.8,0.,4.8,,0,0.,4.8,0.,4.8
1979-03-04 09:12:00.600 ,7,0,,0,2.,4.8,0.,4.8,,0,0.,4.8,0.,4.8
1979-03-04 09:12:05.400 ,7,0,,0,10.,4.8,0.,4.8,,0,0.,4.8,0.,4.8
1979-03-04 09:12:10.200 ,7,0,,0,15.,4.8,0.,4.8,,0,0.,4.8,0.,4.8
1979-03-04 09:12:15.000 ,6,0,,0,9.,4.8,0.,4.8,,0,0.,4.8,0.,4.8
1979-03-04 09:12:19.800 ,6,0,,0,2944.,4.8,1008.,4.8,,0,0.,4.8,592.,4.8
1979-03-04 09:12:24.600 ,6,0,,0,7296.,4.8,2496.,4.8,,0,0.,4.8,1824.,4.8
1979-03-04 09:12:29.400 ,6,0,,0,0.,4.8,0.,4.8,,0,0.,4.8,1952.,4.8
1979-03-04 09:12:34.200 ,6,0,,0,0.,4.8,0.,4.8,,0,0.,4.8,1824.,4.8
1979-03-04 09:12:39.000 ,5,0,,0,0.,4.8,0.,4.8,,0,0.,4.8,1792.,4.8
1979-03-04 09:12:43.800 ,5,0,,0,0.,4.8,0.,4.8,,0,0.,4.8,1824.,4.8
1979-03-04 09:12:48.600 ,5,0,,0,1376.,4.8,488.,4.8,,0,0.,4.8,1664.,4.8
1979-03-04 09:12:53.400 ,5,0,,0,8192.,4.8,2880.,4.8,,0,0.,4.8,1696.,4.8
1979-03-04 09:12:58.200 ,5,0,,0,8192.,4.8,2944.,4.8,,0,0.,4.8,1696.,4.8
1979-03-04 09:13:03.000 ,4,0,,0,8448.,4.8,2944.,4.8,,0,0.,4.8,1696.,4.8
1979-03-04 09:13:07.800 ,4,0,,0,7680.,4.8,2624.,4.8,,0,0.,4.8,1568.,4.8
1979-03-04 09:13:12.600 ,4,0,,0,5376.,4.8,1824.,4.8,,0,0.,4.8,1248.,4.8
1979-03-04 09:13:17.400 ,4,0,,0,2.,4.8,0.,4.8,,0,0.,4.8,1216.,4.8
1979-03-04 09:13:22.200 ,4,0,,0,0.,4.8,0.,4.8,,0,0.,4.8,1216.,4.8
1979-03-04 09:13:27.000 ,3,0,,0,1.,4.8,0.,4.8,,0,0.,4.8,1248.,4.8
1979-03-04 09:13:31.800 ,3,0,,0,0.,4.8,0.,4.8,,0,0.,4.8,1152.,4.8
1979-03-04 09:13:36.600 ,3,0,,0,752.,4.8,244.,4.8,,0,0.,4.8,944.,4.8
1979-03-04 09:13:41.400 ,3,0,,0,4352.,4.8,1440.,4.8,,0,0.,4.8,864.,4.8
1979-03-04 09:13:46.200 ,3,0,,0,4480.,4.8,1408.,4.8,,0,0.,4.8,832.,4.8
1979-03-04 09:13:51.000 ,2,0,,0,4480.,4.8,1440.,4.8,,0,0.,4.8,928.,4.8
1979-03-04 09:13:55.800 ,2,0,,0,4096.,4.8,1280.,4.8,,0,0.,4.8,816.,4.8
1979-03-04 09:14:00.600 ,2,0,,0,2816.,4.8,848.,4.8,,0,0.,4.8,688.,4.8
1979-03-04 09:14:05.400 ,2,0,,0,1.,4.8,0.,4.8,,0,0.,4.8,576.,4.8
1979-03-04 09:14:10.200 ,2,0,,0,0.,4.8,0.,4.8,,0,0.,4.8,640.,4.8
1979-03-04 09:14:15.000 ,1,0,,0,1.,4.8,0.,4.8,,0,0.,4.8,608.,4.8
1979-03-04 09:14:19.800 ,1,0,,0,1.,4.8,0.,4.8,,0,0.,4.8,640.,4.8
1979-03-04 09:14:24.600 ,1,0,,0,528.,4.8,160.,4.8,,0,0.,4.8,656.,4.8
1979-03-04 09:14:29.400 ,1,0,,0,3328.,4.8,1024.,4.8,,0,0.,4.8,608.,4.8
1979-03-04 09:14:34.200 ,1,0,,0,3328.,4.8,992.,4.8,,0,0.,4.8,656.,4.8
1979-03-04 09:14:39.000 ,0,0,,0,3264.,4.8,1008.,4.8,,0,0.,4.8,592.,4.8
1979-03-04 09:14:43.800 ,0,0,,0,3584.,4.8,1120.,4.8,,0,0.,4.8,688.,4.8
1979-03-04 09:14:48.600 ,0,0,,0,3584.,4.8,1216.,4.8,,0,0.,4.8,864.,4.8
1979-03-04 09:14:53.400 ,0,0,,0,1.,4.8,0.,4.8,,0,0.,4.8,928.,4.8
1979-03-04 09:14:58.200 ,0,0,,0,0.,4.8,0.,4.8,,0,0.,4.8,896.,4.8
1979-03-04 09:15:03.000 ,0,0,,0,4.,4.8,0.,4.8,,0,0.,4.8,912.,4.8
1979-03-04 09:15:07.800 ,0,0,,0,1.,4.8,0.,4.8,,0,0.,4.8,928.,4.8
1979-03-04 09:15:12.600 ,0,0,,0,752.,4.8,232.,4.8,,0,0.,4.8,880.,4.8
1979-03-04 09:15:17.400 ,0,0,,0,4224.,4.8,1344.,4.8,,0,0.,4.8,880.,4.8
1979-03-04 09:15:22.200 ,0,0,,0,4480.,4.8,1440.,4.8,,0,0.,4.8,944.,4.8
1979-03-04 09:15:27.000 ,1,0,,0,4224.,4.8,1440.,4.8,,0,0.,4.8,912.,4.8
1979-03-04 09:15:31.800 ,1,0,,0,3968.,4.8,1312.,4.8,,0,0.,4.8,832.,4.8
1979-03-04 09:15:36.600 ,1,0,,0,2560.,4.8,768.,4.8,,0,0.,4.8,656.,4.8
1979-03-04 09:15:41.400 ,1,0,,0,0.,4.8,0.,4.8,,0,0.,4.8,608.,4.8
1979-03-04 09:15:46.200 ,1,0,,0,0.,4.8,0.,4.8,,0,0.,4.8,656.,4.8
1979-03-04 09:15:51.000 ,2,0,,0,0.,4.8,0.,4.8,,0,0.,4.8,640.,4.8
1979-03-04 09:15:55.800 ,2,0,,0,1.,4.8,0.,4.8,,0,0.,4.8,608.,4.8
1979-03-04 09:16:00.600 ,2,0,,0,560.,4.8,156.,4.8,,0,0.,4.8,560.,4.8
1979-03-04 09:16:05.400 ,2,0,,0,3136.,4.8,912.,4.8,,0,0.,4.8,592.,4.8
1979-03-04 09:16:10.200 ,2,0,,0,3072.,4.8,912.,4.8,,0,0.,4.8,560.,4.8
1979-03-04 09:16:15.000 ,3,0,,0,3072.,4.8,864.,4.8,,0,0.,4.8,592.,4.8
1979-03-04 09:16:19.800 ,3,0,,0,3456.,4.8,1024.,4.8,,0,0.,4.8,640.,4.8
1979-03-04 09:16:24.600 ,3,0,,0,3456.,4.8,1056.,4.8,,0,0.,4.8,784.,4.8
1979-03-04 09:16:29.400 ,3,0,,0,1.,4.8,0.,4.8,,0,0.,4.8,800.,4.8
1979-03-04 09:16:34.200 ,3,0,,0,0.,4.8,0.,4.8,,0,0.,4.8,736.,4.8
1979-03-04 09:16:39.000 ,4,0,,0,0.,4.8,0.,4.8,,0,0.,4.8,784.,4.8
1979-03-04 09:16:43.800 ,4,0,,0,1.,4.8,0.,4.8,,0,0.,4.8,864.,4.8
1979-03-04 09:16:48.600 ,4,0,,0,1008.,4.8,352.,4.8,,0,0.,4.8,1216.,4.8
1979-03-04 09:16:53.400 ,4,0,,0,5888.,4.8,1920.,4.8,,0,0.,4.8,1184.,4.8
1979-03-04 09:16:58.200 ,4,0,,0,6144.,4.8,1952.,4.8,,0,0.,4.8,1184.,4.8
1979-03-04 09:17:03.000 ,5,0,,0,6016.,4.8,1984.,4.8,,0,0.,4.8,1184.,4.8
1979-03-04 09:17:07.800 ,5,0,,0,6784.,4.8,2240.,4.8,,0,0.,4.8,1376.,4.8
1979-03-04 09:17:12.600 ,5,0,,0,6912.,4.8,2368.,4.8,,0,0.,4.8,1664.,4.8
1979-03-04 09:17:17.400 ,5,0,,0,2.,4.8,0.,4.8,,0,0.,4.8,1728.,4.8
1979-03-04 09:17:22.200 ,5,0,,0,0.,4.8,0.,4.8,,0,0.,4.8,1728.,4.8
1979-03-04 09:17:27.000 ,6,0,,0,0.,4.8,0.,4.8,,0,0.,4.8,1696.,4.8
1979-03-04 09:17:31.800 ,6,0,,0,0.,4.8,0.,4.8,,0,0.,4.8,1696.,4.8
1979-03-04 09:17:36.600 ,6,0,,0,1408.,4.8,496.,4.8,,0,0.,4.8,1664.,4.8
1979-03-04 09:17:41.400 ,6,0,,0,8192.,4.8,2880.,4.8,,0,0.,4.8,1760.,4.8
1979-03-04 09:17:46.200 ,6,0,,0,8448.,4.8,2944.,4.8,,0,0.,4.8,1696.,4.8
1979-03-04 09:17:51.000 ,7,0,,0,8192.,4.8,2880.,4.8,,0,0.,4.8,1792.,4.8
1979-03-04 09:17:55.800 ,7,0,,0,5504.,4.8,1888.,4.8,,0,0.,4.8,1184.,4.8
1979-03-04 09:18:00.600 ,7,0,,0,7.,4.8,0.,4.8,,0,0.,4.8,0.,4.8
1979-03-04 09:18:05.400 ,7,0,,0,1.,4.8,0.,4.8,,0,0.,4.8,0.,4.8
1979-03-04 09:18:10.200 ,7,0,,0,1.,4.8,0.,4.8,,0,0.,4.8,0.,4.8
1979-03-04 09:18:15.000 ,7,0,,0,1.,4.8,0.,4.8,,0,0.,4.8,0.,4.8
1979-03-04 09:18:19.800 ,7,0,,0,1.,4.8,0.,4.8,,0,0.,4.8,0.,4.8
1979-03-04 09:18:24.600 ,7,0,,0,3.,4.8,0.,4.8,,0,0.,4.8,0.,4.8
1979-03-04 09:18:29.400 ,7,0,,0,11.,4.8,0.,4.8,,0,0.,4.8,0.,4.8
1979-03-04 09:18:34.200 ,7,0,,0,12.,4.8,0.,4.8,,0,0.,4.8,0.,4.8
1979-03-04 09:18:39.000 ,6,0,,0,17.,4.8,0.,4.8,,0,0.,4.8,0.,4.8
1979-03-04 09:18:43.800 ,6,0,,0,2624.,4.8,896.,4.8,,0,0.,4.8,504.,4.8
1979-03-04 09:18:48.600 ,6,0,,0,6912.,4.8,2432.,4.8,,0,0.,4.8,1728.,4.8
1979-03-04 09:18:53.400 ,6,0,,0,0.,4.8,0.,4.8,,0,0.,4.8,1664.,4.8
1979-03-04 09:18:58.200 ,6,0,,0,0.,4.8,0.,4.8,,0,0.,4.8,1664.,4.8
1979-03-04 09:19:03.000 ,5,0,,0,2.,4.8,0.,4.8,,0,0.,4.8,1728.,4.8
1979-03-04 09:19:07.800 ,5,0,,0,,0,,0,,0,,0,,0
1979-03-04 09:19:12.600 ,5,0,,0,1280.,4.8,456.,4.8,,0,0.,4.8,1600.,4.8
1979-03-04 09:19:17.400 ,5,0,,0,7936.,4.8,2688.,4.8,,0,0.,4.8,1600.,4.8
1979-03-04 09:19:22.200 ,5,0,,0,7680.,4.8,2688.,4.8,,0,0.,4.8,1728.,4.8
1979-03-04 09:19:27.000 ,4,0,,0,7936.,4.8,2816.,4.8,,0,0.,4.8,1600.,4.8
1979-03-04 09:19:31.800 ,4,0,,0,7168.,4.8,2432.,4.8,,0,0.,4.8,1440.,4.8
1979-03-04 09:19:36.600 ,4,0,,0,4480.,4.8,1472.,4.8,,0,0.,4.8,1216.,4.8
1979-03-04 09:19:41.400 ,4,0,,0,0.,4.8,0.,4.8,,0,0.,4.8,1120.,4.8
1979-03-04 09:19:46.200 ,4,0,,0,1.,4.8,0.,4.8,,0,0.,4.8,1088.,4.8
1979-03-04 09:19:51.000 ,3,0,,0,0.,4.8,0.,4.8,,0,0.,4.8,1120.,4.8
1979-03-04 09:19:55.800 ,3,0,,0,1.,4.8,0.,4.8,,0,0.,4.8,992.,4.8
1979-03-04 09:20:00.600 ,3,0,,0,592.,4.8,168.,4.8,,0,0.,4.8,720.,4.8
1979-03-04 09:20:05.400 ,3,0,,0,3520.,4.8,1056.,4.8,,0,0.,4.8,688.,4.8
1979-03-04 09:20:10.200 ,3,0,,0,3392.,4.8,1008.,4.8,,0,0.,4.8,672.,4.8
1979-03-04 09:20:15.000 ,2,0,,0,3520.,4.8,1088.,4.8,,0,0.,4.8,688.,4.8
1979-03-04 09:20:19.800 ,2,0,,0,3328.,4.8,960.,4.8,,0,0.,4.8,672.,4.8
1979-03-04 09:20:24.600 ,2,0,,0,2368.,4.8,656.,4.8,,0,0.,4.8,544.,4.8
1979-03-04 09:20:29.400 ,2,0,,0,1.,4.8,0.,4.8,,0,0.,4.8,560.,4.8
1979-03-04 09:20:34.200 ,2,0,,0,0.,4.8,0.,4.8,,0,0.,4.8,608.,4.8
1979-03-04 09:20:39.000 ,1,0,,0,1.,4.8,0.,4.8,,0,0.,4.8,576.,4.8
1979-03-04 09:20:43.800 ,1,0,,0,0.,4.8,0.,4.8,,0,0.,4.8,688.,4.8
1979-03-04 09:20:48.600 ,1,0,,0,560.,4.8,172.,4.8,,0,0.,4.8,688.,4.8
1979-03-04 09:20:53.400 ,1,0,,0,3520.,4.8,1088.,4.8,,0,0.,4.8,672.,4.8
1979-03-04 09:20:58.200 ,1,0,,0,3520.,4.8,1056.,4.8,,0,0.,4.8,688.,4.8
1979-03-04 09:21:03.000 ,0,0,,0,3456.,4.8,1088.,4.8,,0,0.,4.8,672.,4.8
1979-03-04 09:21:07.800 ,0,0,,0,3648.,4.8,1120.,4.8,,0,0.,4.8,736.,4.8
1979-03-04 09:21:12.600 ,0,0,,0,3456.,4.8,1056.,4.8,,0,0.,4.8,800.,4.8
1979-03-04 09:21:17.400 ,0,0,,0,0.,4.8,0.,4.8,,0,0.,4.8,832.,4.8
1979-03-04 09:21:22.200 ,0,0,,0,0.,4.8,0.,4.8,,0,0.,4.8,864.,4.8
1979-03-04 09:21:27.000 ,0,0,,0,1.,4.8,0.,4.8,,0,0.,4.8,832.,4.8
1979-03-04 09:21:31.800 ,0,0,,0,2.,4.8,0.,4.8,,0,0.,4.8,896.,4.8
1979-03-04 09:21:36.600 ,0,0,,0,688.,4.8,232.,4.8,,0,0.,4.8,800.,4.8
1979-03-04 09:21:41.400 ,0,0,,0,4224.,4.8,1344.,4.8,,0,0.,4.8,816.,4.8
1979-03-04 09:21:46.200 ,0,0,,0,4096.,4.8,1312.,4.8,,0,0.,4.8,848.,4.8
1979-03-04 09:21:51.000 ,1,0,,0,4096.,4.8,1376.,4.8,,0,0.,4.8,880.,4.8
1979-03-04 09:21:55.800 ,1,0,,0,3904.,4.8,1248.,4.8,,0,0.,4.8,720.,4.8
1979-03-04 09:22:00.600 ,1,0,,0,2944.,4.8,912.,4.8,,0,0.,4.8,688.,4.8
1979-03-04 09:22:05.400 ,1,0,,0,1.,4.8,0.,4.8,,0,0.,4.8,656.,4.8
1979-03-04 09:22:10.200 ,1,0,,0,1.,4.8,0.,4.8,,0,0.,4.8,640.,4.8
1979-03-04 09:22:15.000 ,2,0,,0,0.,4.8,0.,4.8,,0,0.,4.8,640.,4.8
1979-03-04 09:22:19.800 ,2,0,,0,1.,4.8,0.,4.8,,0,0.,4.8,672.,4.8
1979-03-04 09:22:24.600 ,2,0,,0,512.,4.8,144.,4.8,,0,0.,4.8,624.,4.8
1979-03-04 09:22:29.400 ,2,0,,0,3264.,4.8,896.,4.8,,0,0.,4.8,624.,4.8
1979-03-04 09:22:34.200 ,2,0,,0,3264.,4.8,928.,4.8,,0,0.,4.8,592.,4.8
1979-03-04 09:22:39.000 ,3,0,,0,3328.,4.8,960.,4.8,,0,0.,4.8,624.,4.8
1979-03-04 09:22:43.800 ,3,0,,0,3520.,4.8,1056.,4.8,,0,0.,4.8,688.,4.8
1979-03-04 09:22:48.600 ,3,0,,0,3136.,4.8,928.,4.8,,0,0.,4.8,784.,4.8
1979-03-04 09:22:53.400 ,3,0,,0,0.,4.8,0.,4.8,,0,0.,4.8,768.,4.8
1979-03-04 09:22:58.200 ,3,0,,0,0.,4.8,0.,4.8,,0,0.,4.8,800.,4.8
1979-03-04 09:23:03.000 ,4,0,,0,1.,4.8,0.,4.8,,0,0.,4.8,784.,4.8
1979-03-04 09:23:07.800 ,4,0,,0,2.,4.8,0.,4.8,,0,0.,4.8,864.,4.8
1979-03-04 09:23:12.600 ,4,0,,0,992.,4.8,312.,4.8,,0,0.,4.8,1088.,4.8
1979-03-04 09:23:17.400 ,4,0,,0,5504.,4.8,1696.,4.8,,0,0.,4.8,1120.,4.8
1979-03-04 09:23:22.200 ,4,0,,0,5760.,4.8,1952.,4.8,,0,0.,4.8,1152.,4.8
1979-03-04 09:23:27.000 ,5,0,,0,5632.,4.8,1888.,4.8,,0,0.,4.8,1088.,4.8
1979-03-04 09:23:31.800 ,5,0,,0,6400.,4.8,2112.,4.8,,0,0.,4.8,1216.,4.8
1979-03-04 09:23:36.600 ,5,0,,0,6272.,4.8,2112.,4.8,,0,0.,4.8,1568.,4.8
1979-03-04 09:23:41.400 ,5,0,,0,1.,4.8,0.,4.8,,0,0.,4.8,1536.,4.8
1979-03-04 09:23:46.200 ,5,0,,0,1.,4.8,0.,4.8,,0,0.,4.8,1536.,4.8
1979-03-04 09:23:51.000 ,6,0,,0,0.,4.8,0.,4.8,,0,0.,4.8,1568.,4.8
1979-03-04 09:23:55.800 ,6,0,,0,0.,4.8,0.,4.8,,0,0.,4.8,1504.,4.8
1979-03-04 09:24:00.600 ,6,0,,0,1216.,4.8,416.,4.8,,0,0.,4.8,1536.,4.8
1979-03-04 09:24:05.400 ,6,0,,0,7296.,4.8,2560.,4.8,,0,0.,4.8,1504.,4.8
1979-03-04 09:24:10.200 ,6,0,,0,7424.,4.8,2496.,4.8,,0,0.,4.8,1600.,4.8
1979-03-04 09:24:15.000 ,7,0,,0,7424.,4.8,2560.,4.8,,0,0.,4.8,1504.,4.8
1979-03-04 09:24:19.800 ,7,0,,0,4864.,4.8,1696.,4.8,,0,0.,4.8,1024.,4.8
1979-03-04 09:24:24.600 ,7,0,,0,6.,4.8,0.,4.8,,0,0.,4.8,0.,4.8
1979-03-04 09:24:29.400 ,7,0,,0,2.,4.8,0.,4.8,,0,0.,4.8,0.,4.8
1979-03-04 09:24:34.200 ,7,0,,0,0.,4.8,0.,4.8,,0,0.,4.8,0.,4.8
1979-03-04 09:24:39.000 ,7,0,,0,0.,4.8,0.,4.8,,0,0.,4.8,0.,4.8
1979-03-04 09:24:43.800 ,7,0,,0,1.,4.8,0.,4.8,,0,0.,4.8,0.,4.8
1979-03-04 09:24:48.600 ,7,0,,0,4.,4.8,0.,4.8,,0,0.,4.8,0.,4.8
1979-03-04 09:24:53.400 ,7,0,,0,12.,4.8,0.,4.8,,0,0.,4.8,0.,4.8
1979-03-04 09:24:58.200 ,7,0,,0,10.,4.8,0.,4.8,,0,0.,4.8,0.,4.8
1979-03-04 09:25:03.000 ,6,0,,0,11.,4.8,0.,4.8,,0,0.,4.8,0.,4.8
1979-03-04 09:25:07.800 ,6,0,,0,2368.,4.8,816.,4.8,,0,0.,4.8,480.,4.8
1979-03-04 09:25:12.600 ,6,0,,0,6144.,4.8,2112.,4.8,,0,0.,4.8,1472.,4.8
1979-03-04 09:25:17.400 ,6,0,,0,1.,4.8,0.,4.8,,0,0.,4.8,1600.,4.8
1979-03-04 09:25:22.200 ,6,0,,0,1.,4.8,0.,4.8,,0,0.,4.8,1600.,4.8
1979-03-04 09:25:27.000 ,5,0,,0,4.,4.8,0.,4.8,,0,0.,4.8,1568.,4.8
1979-03-04 09:25:31.800 ,5,0,,0,2.,4.8,0.,4.8,,0,0.,4.8,1472.,4.8
1979-03-04 09:25:36.600 ,5,0,,0,1248.,4.8,456.,4.8,,0,0.,4.8,1472.,4.8
1979-03-04 09:25:41.400 ,5,0,,0,7040.,4.8,2432.,4.8,,0,0.,4.8,1440.,4.8
1979-03-04 09:25:46.200 ,5,0,,0,7168.,4.8,2560.,4.8,,0,0.,4.8,1440.,4.8
1979-03-04 09:25:51.000 ,4,0,,0,7040.,4.8,2432.,4.8,,0,0.,4.8,1440.,4.8
1979-03-04 09:25:55.800 ,4,0,,0,6400.,4.8,2112.,4.8,,0,0.,4.8,1344.,4.8
1979-03-04 09:26:00.600 ,4,0,,0,4480.,4.8,1376.,4.8,,0,0.,4.8,976.,4.8
1979-03-04 09:26:05.400 ,4,0,,0,0.,4.8,0.,4.8,,0,0.,4.8,1056.,4.8
1979-03-04 09:26:10.200 ,4,0,,0,1.,4.8,0.,4.8,,0,0.,4.8,1008.,4.8
1979-03-04 09:26:15.000 ,3,0,,0,0.,4.8,0.,4.8,,0,0.,4.8,1024.,4.8
1979-03-04 09:26:19.800 ,3,0,,0,1.,4.8,0.,4.8,,0,0.,4.8,960.,4.8
1979-03-04 09:26:24.600 ,3,0,,0,608.,4.8,184.,4.8,,0,0.,4.8,736.,4.8
1979-03-04 09:26:29.400 ,3,0,,0,3712.,4.8,1152.,4.8,,0,0.,4.8,704.,4.8
1979-03-04 09:26:34.200 ,3,0,,0,3776.,4.8,1248.,4.8,,0,0.,4.8,688.,4.8
1979-03-04 09:26:39.000 ,2,0,,0,3840.,4.8,1184.,4.8,,0,0.,4.8,752.,4.8
1979-03-04 09:26:43.800 ,2,0,,0,3520.,4.8,1088.,4.8,,0,0.,4.8,736.,4.8
1979-03-04 09:26:48.600 ,2,0,,0,2688.,4.8,848.,4.8,,0,0.,4.8,688.,4.8
1979-03-04 09:26:53.400 ,2,0,,0,2.,4.8,0.,4.8,,0,0.,4.8,704.,4.8
1979-03-04 09:26:58.200 ,2,0,,0,0.,4.8,0.,4.8,,0,0.,4.8,688.,4.8
1979-03-04 09:27:03.000 ,1,0,,0,1.,4.8,0.,4.8,,0,0.,4.8,608.,4.8
1979-03-04 09:27:07.800 ,1,0,,0,1.,4.8,0.,4.8,,0,0.,4.8,672.,4.8
1979-03-04 09:27:12.600 ,1,0,,0,576.,4.8,196.,4.8,,0,0.,4.8,640.,4.8
1979-03-04 09:27:17.400 ,1,0,,0,3264.,4.8,1024.,4.8,,0,0.,4.8,640.,4.8
1979-03-04 09:27:22.200 ,1,0,,0,3200.,4.8,1024.,4.8,,0,0.,4.8,624.,4.8
1979-03-04 09:27:27.000 ,0,0,,0,3328.,4.8,1088.,4.8,,0,0.,4.8,640.,4.8
1979-03-04 09:27:31.800 ,0,0,,0,3264.,4.8,1056.,4.8,,0,0.,4.8,672.,4.8
1979-03-04 09:27:36.600 ,0,0,,0,3200.,4.8,1024.,4.8,,0,0.,4.8,752.,4.8
1979-03-04 09:27:41.400 ,0,0,,0,0.,4.8,0.,4.8,,0,0.,4.8,752.,4.8
1979-03-04 09:27:46.200 ,0,0,,0,0.,4.8,0.,4.8,,0,0.,4.8,784.,4.8
1979-03-04 09:27:51.000 ,0,0,,0,2.,4.8,0.,4.8,,0,0.,4.8,768.,4.8
1979-03-04 09:27:55.800 ,0,0,,0,1.,4.8,0.,4.8,,0,0.,4.8,784.,4.8
1979-03-04 09:28:00.600 ,0,0,,0,608.,4.8,196.,4.8,,0,0.,4.8,768.,4.8
1979-03-04 09:28:05.400 ,0,0,,0,3584.,4.8,1184.,4.8,,0,0.,4.8,704.,4.8
1979-03-04 09:28:10.200 ,0,0,,0,3648.,4.8,1184.,4.8,,0,0.,4.8,784.,4.8